Regional Weather Roundup
Issued by NWS

Home | Current Version | Previous Version | Graphics & Text | Print | Product List | Glossary On
Versions: 1 2 3 4 5 6 7 8 9 10 11 12 13 14 15 16 17 18 19 20 21 22 23 24 25 26 27 28 29 30 31 32 33 34 35 36 37 38 39 40 41 42 43 44 45 46 47 48 49 50
998
ASUS43 KMKX 292100
RWRWI

WISCONSIN REGIONAL WEATHER ROUNDUP
NATIONAL WEATHER SERVICE MILWAUKEE/SULLIVAN WI
400 PM CDT WED MAR 29 2017

NOTE: "FAIR" INDICATES FEW OR NO CLOUDS BELOW 12,000 FEET WITH NO
SIGNIFICANT WEATHER AND/OR OBSTRUCTIONS TO VISIBILITY.

WIZ001-002-006>008-014>016-023>028-292200-
NORTHWEST WISCONSIN

CITY           SKY/WX    TMP DP  RH WIND       PRES   REMARKS
SUPERIOR ARPT  CLOUDY    36  32  87 NE15      30.28F WCI  26
ASHLAND        CLOUDY    37  31  78 N10       30.27F WCI  30
HAYWARD        CLOUDY    52  28  39 SE6       30.20F
SIREN          CLOUDY    52  29  40 CALM      30.20F
CUMBERLAND     CLOUDY    48  32  53 SE6       30.20F
RICE LAKE      CLOUDY    49  32  51 SE7       30.22F
CHETEK         CLOUDY    48  33  55 SE10      30.21F
LADYSMITH      CLOUDY    50  32  49 SE7       30.23F
EAU CLAIRE     NOT AVBL
MENOMONIE      CLOUDY    49  33  52 SE7       30.21F
NEW RICHMOND   CLOUDY    48  32  53 E6        30.20F
OSCEOLA        CLOUDY    50  34  55 SE8       30.22F
$$

WIZ003>005-009-010-017-018-292200-
NORTH CENTRAL WISCONSIN

CITY           SKY/WX    TMP DP  RH WIND       PRES   REMARKS
MANITOWISH WTR CLOUDY    47  29  48 E6        30.25F
ARBOR VITAE    CLOUDY    49  31  50 SE7       30.24F
WOODRUFF       CLOUDY    49  31  50 SE7       30.24F
RHINELANDER    CLOUDY    48  30  49 SE9       30.25F
EAGLE RIVER    CLOUDY    46  27  46 E6        30.26F
LAND O LAKES   CLOUDY    47  28  47 E6        30.28F
PHILLIPS       CLOUDY    49  31  48 SE9       30.23F
TOMAHAWK       CLOUDY    46  30  52 SE5       30.25F
MEDFORD        CLOUDY    45  32  59 E10       30.22F
MERRILL        CLOUDY    46  31  54 SE6       30.25F
$$

WIZ029-030-035-036-043>047-292200-
CENTRAL WISCONSIN

CITY           SKY/WX    TMP DP  RH WIND       PRES   REMARKS
WAUSAU         CLOUDY    46  29  51 SE9       30.22F
MOSINEE        CLOUDY    45  30  57 E10       30.24F
MARSHFIELD     CLOUDY    45  31  58 E12       30.21F
STEVENS POINT  CLOUDY    43  29  57 E12       30.25F
WAUPACA        CLOUDY    47  33  58 E7        30.27F
WAUTOMA        CLOUDY    45  36  70 NE13      30.24F
WISC RAPIDS    CLOUDY    46  33  60 E12       30.24F
CAMP DOUGLAS   NOT AVBL
$$

WIZ011>013-019>022-031-037>040-048>050-292200-
NORTHEAST WISCONSIN

CITY           SKY/WX    TMP DP  RH WIND       PRES   REMARKS
ANTIGO         CLOUDY    42  31  62 E8        30.27F
SHAWANO        CLOUDY    46  32  58 E8        30.30F
OCONTO         CLOUDY    41  29  63 NE7       30.31F
STURGEON BAY   PTSUNNY   41  27  57 NE13      30.27F
GREEN BAY      CLOUDY    40  34  79 NE10      30.30F WCI  33
MANITOWOC      NOT AVBL
APPLETON       CLOUDY    43  30  61 NE12G17   30.26F
CLINTONVILLE   CLOUDY    45  28  53 E9        30.28F
OSHKOSH        CLOUDY    43  30  60 E10       30.25F
$$

WIZ032>034-041-042-053>061-292200-
SOUTHWEST WISCONSIN

CITY           SKY/WX    TMP DP  RH WIND       PRES   REMARKS
LA CROSSE      CLOUDY    47  37  68 CALM      30.18F
SPARTA         CLOUDY    42  39  89 NE12      30.20F
VIROQUA        CLOUDY    44  36  73 E12G18    30.16F
BOSCOBEL       CLOUDY    48  36  63 E8        30.14F
PRAIRIE DU CHI DRIZZLE   46  34  62 E13G18    30.12F
PLATTEVILLE    CLOUDY    46  37  71 NE18G24   30.08F
$$

WIZ056-057-062-063-064-067-068-292200-
SOUTH CENTRAL WISCONSIN

CITY           SKY/WX    TMP DP  RH WIND       PRES   REMARKS
REEDSBURG      CLOUDY    45  39  78 NE8G17    30.18F
BARABOO/DELLS  CLOUDY    45  37  75 NE12      30.18F
LONE ROCK      NOT AVBL
MINERAL POINT  LGT RAIN  46  37  71 NE16      30.11F
MADISON        CLOUDY    47  31  53 E16       30.17F
MIDDLETON      CLOUDY    48  36  61 E15       30.18F
WATERTOWN      CLOUDY    46  32  58 E15       30.20F
MONROE         CLOUDY    45  34  65 NE18      30.11F
JANESVILLE     CLOUDY    48  34  57 E17       30.14F
$$

WIZ051-052-058>065-066-070>072-292200-
SOUTHEAST WISCONSIN

CITY           SKY/WX    TMP DP  RH WIND       PRES   REMARKS
MILWAUKEE      CLOUDY    40  35  83 NE15      30.22F WCI  32
WAUKESHA       CLOUDY    43  30  61 E10G17    30.22F
MILWAUKEE/TIMM CLOUDY    39  32  75 NE14      30.24F WCI  31
RACINE         CLOUDY    41  33  73 N14       30.22F
KENOSHA        CLOUDY    44  33  65 NE13      30.20F
FOND DU LAC    CLOUDY    46  36  68 E10       30.24F
SHEBOYGAN      CLOUDY    39  33  79 NE13      30.26F WCI  31
WEST BEND      CLOUDY    43  37  81 E13       30.24F
JUNEAU         CLOUDY    45  34  65 NE12      30.22F
$$

LSZ147-162-292200-
LAKE SUPERIOR

STATION/POSITION TIME  TEMP    WIND        PRES    WAVE
                       AIR SEA DIR/SP/G            HT/PER
                 (UTC) (F)     (DEG/KT/KT) (MB)    (FT/S)
DEVILS ISLAND    2000   34      60/ 16/ 19 1027.3F
PORT WING        2040   35      40/ 21/ 23 1024.7F
SAXON HARBOR     2040   35     300/  5/  6 1024.4F
$$

LMZ867-665-643>646-292200-
LAKE MICHIGAN

STATION/POSITION TIME  TEMP    WIND        PRES    WAVE
                       AIR SEA DIR/SP/G            HT/PER
                 (UTC) (F)     (DEG/KT/KT) (MB)    (FT/S)
CHAMBERS ISLAND  2040   37      50/  7/  9 1026.8F
NORTHPORT PIER   2040   35        CALM     1027.1F
KEWAUNEE LAKESHO 2030   36      30/ 11/ 15 1025.9F
SHEBOYGAN LAKESH 2000   35      10/ 14/ 16 1026.6F
PORT WASHINGTON  2030   38      40/ 16/ 17 1025.4F
MILWAUKEE LAKESH 2030   38      20/ 15/ 17   N/A
KENOSHA   LAKESH 2000   39      30/ 11/ 14 1023.7
$$

TC  - TEMPERATURE IN CELSIUS
VSB - VISIBILITY IN STATUTE MILES
WCI - WIND CHILL INDEX
HX  - HEAT INDEX





USA.gov is the U.S. government's official web portal to all federal, state and local government web resources and services.